Location: Brompton
(51.4000°N, 0.5333°E)
Time: 18:34:38
(UTC+00:00)

COSMOS 2406 - Pass Details

Date: 11 May 2021
Orbit: 844 x 862 km, 71.0° (Epoch: 21 June)

Event Time Altitude Azimuth Distance (km) Brightness Sun altitude
Rises 21:40:53 0° 325° (NW) 3,416 8.3 -14.6°
Reaches altitude 10° 21:43:28 10° 319° (NW) 2,477 7.0 -14.8°
Maximum altitude 21:48:42 40° 251° (WSW) 1,233 4.1 -15.3°
Enters shadow 21:52:50 16° 189° (S) 2,095 4.8 -15.6°
